QPF
0.00 0.01 0.01 0.02 0.03 0.03 0.01 0.01 0.01 0.01 0.01 0.01 0.02 0.03 0.03 0.02 0.03 0.04 0.06 0.04 0.04 0.04 0.03 0.03 0.05 0.06 0.08 0.08 0.10 0.11 0.10 0.09 0.09 0.08 0.07 0.06 0.04 0.03
0.01 0.01 0.01 0.02 0.02 0.02 0.01 0.01 0.01 0.01 0.01 0.01 0.01 0.02 0.03 0.03 0.03 0.02 0.05 0.07 0.05 0.05 0.03 0.03 0.04 0.06 0.06 0.06 0.05 0.05 0.06 0.06 0.06 0.06 0.06 0.06 0.04 0.03
0.01 0.01 0.01 0.01 0.01 0.01 0.01 0.01 0.01 0.00 0.00 0.01 0.01 0.02 0.03 0.04 0.04 0.03 0.03 0.05 0.05 0.06 0.04 0.03 0.04 0.07 0.08 0.06 0.04 0.03 0.02 0.03 0.03 0.04 0.05 0.05 0.04 0.03
0.01 0.01 0.01 0.01 0.00 0.01 0.01 0.01 0.01 0.01 0.00 0.01 0.02 0.02 0.02 0.03 0.04 0.04 0.04 0.04 0.04 0.06 0.05 0.04 0.04 0.06 0.10 0.07 0.03 0.02 0.02 0.02 0.02 0.02 0.03 0.03 0.03 0.03
0.01 0.01 0.01 0.02 0.02 0.02 0.02 0.01 0.01 0.01 0.00 0.00 0.01 0.01 0.01 0.02 0.03 0.03 0.05 0.05 0.04 0.05 0.06 0.05 0.04 0.04 0.10 0.09 0.04 0.02 0.02 0.01 0.01 0.02 0.02 0.02 0.03 0.03
0.01 0.01 0.01 0.02 0.02 0.01 0.00 0.01 0.01 0.01 0.01 0.01 0.01 0.00 0.01 0.01 0.02 0.02 0.03 0.04 0.05 0.05 0.05 0.05 0.04 0.04 0.05 0.09 0.05 0.02 0.01 0.02 0.01 0.02 0.03 0.03 0.03 0.03
0.01 0.02 0.01 0.02 0.02 0.01 0.01 0.01 0.01 0.01 0.01 0.01 0.01 0.01 0.01 0.01 0.02 0.03 0.03 0.04 0.05 0.06 0.05 0.04 0.04 0.03 0.03 0.06 0.07 0.04 0.02 0.02 0.02 0.02 0.03 0.03 0.03 0.03
0.01 0.01 0.00 0.01 0.01 0.01 0.02 0.01 0.01 0.01 0.01 0.02 0.01 0.01 0.01 0.01 0.02 0.03 0.03 0.04 0.04 0.05 0.06 0.04 0.04 0.04 0.04 0.04 0.06 0.06 0.04 0.03 0.03 0.03 0.03 0.03 0.03 0.03
0.00 0.00 0.00 0.00 0.00 0.01 0.00 0.00 0.01 0.01 0.02 0.03 0.02 0.01 0.01 0.01 0.02 0.02 0.03 0.03 0.03 0.04 0.06 0.05 0.06 0.08 0.06 0.05 0.06 0.06 0.04 0.04 0.03 0.03 0.03 0.04 0.04 0.04
0.00 0.00 0.01 0.00 0.00 0.00 0.00 0.00 0.00 0.01 0.01 0.02 0.02 0.01 0.02 0.02 0.02 0.02 0.03 0.04 0.05 0.06 0.06 0.06 0.06 0.08 0.08 0.07 0.07 0.06 0.05 0.04 0.03 0.03 0.03 0.03 0.03 0.04
0.00 0.00 0.01 0.01 0.00 0.00 0.00 0.00 0.01 0.01 0.01 0.01 0.01 0.01 0.01 0.02 0.03 0.03 0.04 0.04 0.05 0.06 0.07 0.06 0.06 0.08 0.10 0.09 0.09 0.09 0.08 0.06 0.04 0.03 0.03 0.03 0.03 0.03
0.00 0.01 0.01 0.01 0.00 0.00 0.00 0.00 0.01 0.01 0.01 0.01 0.01 0.01 0.01 0.01 0.02 0.03 0.03 0.04 0.05 0.06 0.07 0.08 0.06 0.07 0.11 0.13 0.09 0.08 0.08 0.07 0.05 0.04 0.03 0.03 0.03 0.02
0.00 0.01 0.01 0.00 0.00 0.00 0.01 0.01 0.01 0.01 0.01 0.01 0.01 0.01 0.01 0.01 0.01 0.03 0.04 0.05 0.05 0.06 0.06 0.07 0.08 0.08 0.08 0.13 0.15 0.10 0.07 0.06 0.05 0.04 0.03 0.03 0.03 0.03
0.01 0.00 0.00 0.00 0.00 0.00 0.00 0.01 0.01 0.01 0.01 0.01 0.01 0.01 0.01 0.01 0.01 0.02 0.05 0.07 0.06 0.07 0.09 0.07 0.06 0.07 0.08 0.10 0.14 0.15 0.11 0.08 0.06 0.04 0.03 0.03 0.04 0.04
0.01 0.01 0.01 0.01 0.01 0.00 0.00 0.01 0.01 0.01 0.01 0.01 0.01 0.01 0.01 0.01 0.02 0.03 0.04 0.06 0.07 0.08 0.10 0.09 0.07 0.05 0.06 0.07 0.09 0.10 0.11 0.12 0.08 0.06 0.04 0.03 0.02 0.02
0.01 0.01 0.01 0.01 0.01 0.00 0.00 0.00 0.00 0.01 0.01 0.01 0.01 0.01 0.01 0.01 0.02 0.03 0.03 0.03 0.05 0.06 0.08 0.09 0.07 0.06 0.04 0.03 0.06 0.08 0.07 0.08 0.09 0.06 0.05 0.04 0.02 0.02
0.01 0.01 0.01 0.01 0.01 0.01 0.00 0.00 0.00 0.01 0.01 0.01 0.02 0.02 0.02 0.02 0.02 0.02 0.03 0.04 0.04 0.04 0.04 0.05 0.06 0.06 0.05 0.03 0.03 0.05 0.06 0.06 0.06 0.06 0.04 0.04 0.03 0.02
0.01 0.01 0.01 0.01 0.01 0.01 0.01 0.01 0.01 0.01 0.01 0.02 0.02 0.02 0.02 0.03 0.03 0.03 0.03 0.04 0.04 0.04 0.03 0.03 0.04 0.06 0.07 0.05 0.04 0.04 0.05 0.05 0.05 0.05 0.05 0.04 0.03 0.03
0.01 0.01 0.01 0.01 0.02 0.02 0.02 0.02 0.02 0.01 0.01 0.02 0.03 0.03 0.03 0.03 0.04 0.04 0.04 0.03 0.03 0.03 0.03 0.03 0.03 0.04 0.05 0.06 0.04 0.03 0.05 0.05 0.05 0.06 0.05 0.05 0.04 0.04
0.01 0.01 0.01 0.01 0.02 0.02 0.03 0.02 0.02 0.02 0.03 0.03 0.03 0.04 0.05 0.05 0.05 0.05 0.05 0.03 0.02 0.02 0.03 0.03 0.03 0.03 0.03 0.04 0.04 0.03 0.02 0.02 0.03 0.04 0.04 0.04 0.04 0.05
0.01 0.01 0.01 0.02 0.02 0.02 0.03 0.03 0.03 0.03 0.03 0.03 0.04 0.04 0.05 0.05 0.05 0.06 0.06 0.04 0.03 0.02 0.01 0.01 0.01 0.02 0.03 0.04 0.04 0.03 0.02 0.02 0.02 0.02 0.02 0.03 0.03 0.03
0.01 0.02 0.02 0.02 0.03 0.03 0.03 0.04 0.04 0.05 0.05 0.05 0.04 0.05 0.06 0.06 0.06 0.06 0.06 0.06 0.04 0.03 0.02 0.01 0.01 0.02 0.02 0.03 0.03 0.03 0.03 0.03 0.02 0.02 0.03 0.04 0.03 0.02
0.02 0.02 0.02 0.02 0.02 0.03 0.04 0.04 0.05 0.05 0.05 0.06 0.06 0.06 0.06 0.08 0.08 0.08 0.08 0.08 0.07 0.05 0.04 0.03 0.02 0.02 0.02 0.02 0.02 0.02 0.02 0.03 0.04 0.04 0.03 0.03 0.04 0.04
MSLP
1015.47 1015.32 1015.23 1015.20 1015.21 1015.24 1015.26 1015.24 1015.17 1015.04 1014.86 1014.63 1014.38 1014.14 1013.95 1013.82 1013.77 1013.81 1013.95 1014.16 1014.43 1014.74 1015.07 1015.39 1015.69 1015.96 1016.18 1016.37 1016.52 1016.66 1016.78 1016.91 1017.04 1017.20 1017.38 1017.56 1017.75 1017.93
1015.74 1015.59 1015.48 1015.42 1015.40 1015.41 1015.43 1015.42 1015.38 1015.29 1015.14 1014.94 1014.71 1014.47 1014.25 1014.08 1013.97 1013.95 1014.01 1014.16 1014.38 1014.65 1014.95 1015.26 1015.55 1015.81 1016.03 1016.20 1016.34 1016.46 1016.57 1016.69 1016.82 1016.97 1017.15 1017.34 1017.52 1017.70
1015.94 1015.81 1015.71 1015.64 1015.61 1015.61 1015.62 1015.63 1015.62 1015.56 1015.45 1015.29 1015.09 1014.87 1014.64 1014.44 1014.29 1014.20 1014.20 1014.27 1014.42 1014.63 1014.89 1015.15 1015.41 1015.65 1015.85 1016.02 1016.16 1016.27 1016.39 1016.51 1016.65 1016.81 1016.99 1017.18 1017.37 1017.53
1016.06 1015.97 1015.89 1015.83 1015.81 1015.81 1015.83 1015.85 1015.86 1015.84 1015.77 1015.65 1015.49 1015.29 1015.07 1014.87 1014.68 1014.55 1014.48 1014.48 1014.56 1014.69 1014.88 1015.09 1015.31 1015.51 1015.70 1015.86 1016.00 1016.13 1016.26 1016.40 1016.55 1016.73 1016.91 1017.10 1017.28 1017.42
1016.08 1016.04 1016.00 1015.97 1015.97 1015.98 1016.01 1016.04 1016.06 1016.06 1016.03 1015.96 1015.84 1015.68 1015.49 1015.29 1015.10 1014.93 1014.82 1014.75 1014.76 1014.82 1014.94 1015.08 1015.25 1015.43 1015.60 1015.75 1015.90 1016.04 1016.19 1016.35 1016.52 1016.70 1016.89 1017.07 1017.22 1017.33
1016.03 1016.03 1016.03 1016.04 1016.05 1016.07 1016.10 1016.13 1016.17 1016.19 1016.19 1016.15 1016.08 1015.96 1015.82 1015.64 1015.46 1015.29 1015.15 1015.05 1014.99 1015.00 1015.05 1015.14 1015.26 1015.40 1015.55 1015.70 1015.85 1016.01 1016.17 1016.34 1016.51 1016.70 1016.87 1017.03 1017.15 1017.23
1015.93 1015.97 1015.99 1016.02 1016.03 1016.05 1016.07 1016.10 1016.12 1016.15 1016.17 1016.17 1016.14 1016.07 1015.98 1015.85 1015.71 1015.56 1015.42 1015.30 1015.22 1015.18 1015.19 1015.24 1015.32 1015.43 1015.55 1015.70 1015.84 1016.00 1016.16 1016.33 1016.49 1016.66 1016.81 1016.94 1017.03 1017.07
1015.83 1015.88 1015.91 1015.93 1015.93 1015.93 1015.92 1015.92 1015.92 1015.94 1015.96 1015.98 1015.98 1015.97 1015.94 1015.87 1015.79 1015.68 1015.57 1015.47 1015.38 1015.33 1015.32 1015.34 1015.40 1015.48 1015.59 1015.71 1015.85 1015.99 1016.13 1016.28 1016.43 1016.56 1016.68 1016.77 1016.82 1016.84
1015.78 1015.81 1015.83 1015.82 1015.79 1015.74 1015.69 1015.63 1015.59 1015.57 1015.58 1015.60 1015.63 1015.66 1015.69 1015.69 1015.66 1015.62 1015.56 1015.50 1015.45 1015.41 1015.39 1015.41 1015.45 1015.52 1015.61 1015.72 1015.83 1015.95 1016.07 1016.19 1016.30 1016.39 1016.48 1016.53 1016.55 1016.55
1015.83 1015.83 1015.80 1015.75 1015.66 1015.55 1015.42 1015.30 1015.19 1015.12 1015.09 1015.09 1015.13 1015.19 1015.25 1015.31 1015.36 1015.38 1015.38 1015.37 1015.36 1015.36 1015.37 1015.39 1015.44 1015.51 1015.59 1015.68 1015.77 1015.87 1015.96 1016.04 1016.11 1016.17 1016.22 1016.25 1016.26 1016.25
1015.99 1015.95 1015.87 1015.76 1015.61 1015.42 1015.21 1015.00 1014.81 1014.67 1014.58 1014.54 1014.56 1014.62 1014.71 1014.80 1014.89 1014.97 1015.03 1015.08 1015.11 1015.15 1015.19 1015.25 1015.31 1015.39 1015.48 1015.57 1015.65 1015.73 1015.79 1015.85 1015.89 1015.93 1015.95 1015.97 1015.99 1016.00
1016.26 1016.18 1016.05 1015.88 1015.65 1015.38 1015.09 1014.79 1014.52 1014.29 1014.13 1014.04 1014.01 1014.05 1014.12 1014.22 1014.33 1014.43 1014.52 1014.61 1014.69 1014.77 1014.85 1014.94 1015.04 1015.14 1015.25 1015.35 1015.44 1015.51 1015.58 1015.63 1015.66 1015.70 1015.73 1015.76 1015.80 1015.85
1016.60 1016.48 1016.31 1016.09 1015.80 1015.46 1015.09 1014.71 1014.35 1014.05 1013.81 1013.64 1013.55 1013.53 1013.56 1013.62 1013.71 1013.80 1013.90 1014.00 1014.10 1014.20 1014.32 1014.44 1014.58 1014.72 1014.86 1015.00 1015.12 1015.22 1015.30 1015.37 1015.43 1015.49 1015.55 1015.61 1015.69 1015.79
1016.93 1016.79 1016.60 1016.34 1016.01 1015.61 1015.19 1014.75 1014.32 1013.94 1013.63 1013.38 1013.21 1013.11 1013.06 1013.06 1013.09 1013.13 1013.19 1013.27 1013.36 1013.47 1013.61 1013.76 1013.93 1014.12 1014.31 1014.49 1014.66 1014.82 1014.95 1015.07 1015.18 1015.28 1015.39 1015.51 1015.65 1015.80
1017.18 1017.04 1016.83 1016.55 1016.20 1015.79 1015.33 1014.85 1014.39 1013.95 1013.57 1013.25 1013.00 1012.80 1012.66 1012.56 1012.50 1012.46 1012.45 1012.47 1012.52 1012.61 1012.74 1012.91 1013.11 1013.34 1013.58 1013.82 1014.06 1014.28 1014.49 1014.68 1014.86 1015.03 1015.21 1015.40 1015.60 1015.80
1017.28 1017.14 1016.94 1016.67 1016.32 1015.90 1015.44 1014.96 1014.48 1014.02 1013.60 1013.22 1012.89 1012.60 1012.36 1012.14 1011.97 1011.82 1011.71 1011.64 1011.62 1011.66 1011.76 1011.92 1012.13 1012.39 1012.67 1012.97 1013.28 1013.58 1013.87 1014.14 1014.41 1014.67 1014.93 1015.19 1015.46 1015.72
1017.19 1017.06 1016.87 1016.61 1016.28 1015.89 1015.47 1015.01 1014.55 1014.09 1013.65 1013.23 1012.84 1012.47 1012.12 1011.80 1011.50 1011.23 1011.01 1010.83 1010.72 1010.69 1010.73 1010.86 1011.06 1011.32 1011.63 1011.97 1012.33 1012.70 1013.07 1013.44 1013.79 1014.15 1014.49 1014.83 1015.17 1015.48
1016.90 1016.77 1016.59 1016.36 1016.06 1015.72 1015.34 1014.93 1014.51 1014.08 1013.65 1013.22 1012.79 1012.37 1011.94 1011.51 1011.10 1010.72 1010.38 1010.09 1009.88 1009.75 1009.72 1009.78 1009.94 1010.18 1010.48 1010.84 1011.24 1011.66 1012.10 1012.54 1012.98 1013.42 1013.85 1014.27 1014.68 1015.05
1016.44 1016.30 1016.13 1015.92 1015.67 1015.38 1015.06 1014.71 1014.35 1013.96 1013.56 1013.14 1012.70 1012.24 1011.75 1011.25 1010.76 1010.27 1009.83 1009.43 1009.12 1008.90 1008.78 1008.76 1008.85 1009.04 1009.31 1009.65 1010.05 1010.50 1010.97 1011.47 1011.99 1012.51 1013.02 1013.53 1014.01 1014.45
1015.85 1015.70 1015.53 1015.33 1015.12 1014.87 1014.61 1014.33 1014.02 1013.69 1013.33 1012.94 1012.50 1012.03 1011.51 1010.97 1010.42 1009.87 1009.35 1008.87 1008.47 1008.16 1007.95 1007.84 1007.85 1007.96 1008.16 1008.46 1008.83 1009.27 1009.76 1010.29 1010.86 1011.45 1012.05 1012.64 1013.20 1013.72
1015.18 1015.01 1014.83 1014.64 1014.45 1014.24 1014.02 1013.79 1013.53 1013.25 1012.93 1012.56 1012.15 1011.68 1011.17 1010.62 1010.05 1009.47 1008.91 1008.38 1007.92 1007.54 1007.24 1007.05 1006.96 1006.98 1007.10 1007.32 1007.63 1008.03 1008.51 1009.06 1009.66 1010.31 1010.98 1011.66 1012.31 1012.92
1014.47 1014.27 1014.07 1013.88 1013.69 1013.50 1013.31 1013.10 1012.87 1012.62 1012.32 1011.98 1011.59 1011.15 1010.66 1010.13 1009.58 1009.01 1008.45 1007.92 1007.43 1007.00 1006.64 1006.37 1006.19 1006.11 1006.13 1006.26 1006.49 1006.83 1007.28 1007.82 1008.44 1009.14 1009.88 1010.64 1011.39 1012.11
1013.73 1013.50 1013.28 1013.07 1012.87 1012.68 1012.47 1012.26 1012.04 1011.79 1011.50 1011.18 1010.82 1010.40 1009.96 1009.47 1008.97 1008.45 1007.93 1007.42 1006.94 1006.50 1006.11 1005.78 1005.52 1005.35 1005.26 1005.29 1005.43 1005.69 1006.08 1006.60 1007.22 1007.95 1008.75 1009.59 1010.44 1011.27
Thickness
5686 5685 5683 5682 5682 5682 5680 5679 5674 5670 5673 5680 5685 5691 5694 5696 5698 5700 5702 5704 5706 5708 5709 5711 5713 5715 5717 5718 5720 5720 5721 5721 5721 5721 5721 5720 5720 5720
5685 5684 5682 5682 5681 5681 5681 5680 5678 5675 5672 5677 5682 5686 5690 5693 5694 5696 5698 5700 5702 5704 5705 5707 5709 5711 5713 5714 5715 5716 5716 5717 5717 5717 5716 5716 5716 5716
5685 5683 5682 5681 5680 5680 5680 5679 5677 5675 5672 5675 5679 5683 5685 5687 5690 5692 5694 5695 5697 5700 5702 5703 5705 5707 5708 5710 5711 5711 5712 5712 5712 5712 5712 5712 5712 5711
5683 5682 5681 5681 5680 5679 5678 5677 5676 5675 5673 5672 5674 5677 5680 5682 5685 5686 5688 5690 5693 5695 5697 5699 5701 5702 5704 5705 5705 5706 5706 5707 5707 5707 5707 5707 5707 5706
5682 5681 5680 5679 5678 5677 5676 5675 5674 5674 5672 5670 5670 5673 5675 5677 5678 5680 5683 5685 5687 5690 5692 5694 5696 5697 5698 5699 5700 5701 5701 5702 5702 5702 5702 5702 5702 5701
5680 5679 5679 5678 5676 5676 5675 5673 5672 5670 5669 5667 5667 5667 5669 5672 5673 5673 5675 5678 5681 5684 5686 5688 5689 5691 5692 5693 5694 5695 5695 5696 5696 5696 5696 5696 5695 5695
5678 5677 5677 5677 5676 5675 5674 5671 5670 5667 5665 5664 5663 5663 5664 5665 5667 5669 5670 5672 5675 5677 5679 5681 5682 5684 5685 5686 5687 5689 5689 5689 5690 5689 5689 5689 5689 5688
5674 5675 5675 5674 5674 5673 5672 5671 5669 5666 5663 5661 5661 5661 5662 5663 5665 5666 5665 5665 5666 5672 5672 5673 5676 5677 5679 5680 5681 5682 5683 5683 5683 5683 5682 5682 5682 5681
5670 5670 5671 5671 5670 5668 5668 5668 5667 5666 5665 5662 5660 5660 5661 5662 5662 5662 5662 5662 5664 5667 5667 5666 5669 5670 5673 5674 5675 5676 5676 5676 5676 5676 5675 5675 5674 5674
5665 5665 5664 5665 5665 5663 5662 5661 5661 5661 5661 5660 5660 5661 5662 5662 5662 5662 5661 5660 5660 5662 5663 5661 5663 5664 5666 5667 5668 5669 5670 5670 5670 5669 5668 5668 5667 5666
5660 5660 5659 5659 5660 5659 5657 5655 5655 5656 5658 5658 5658 5659 5659 5659 5659 5657 5655 5654 5653 5655 5657 5657 5657 5657 5658 5660 5661 5662 5662 5662 5662 5661 5661 5660 5659 5658
5653 5653 5654 5654 5654 5653 5650 5649 5649 5651 5651 5652 5652 5653 5654 5654 5655 5654 5653 5651 5650 5650 5652 5651 5651 5650 5649 5652 5653 5654 5654 5654 5654 5653 5653 5652 5651 5650
5645 5645 5646 5647 5647 5646 5645 5644 5645 5645 5644 5644 5644 5645 5646 5647 5648 5649 5650 5649 5648 5648 5649 5648 5646 5645 5644 5643 5644 5645 5645 5645 5645 5644 5644 5644 5643 5642
5638 5638 5639 5640 5640 5639 5638 5638 5639 5638 5636 5635 5635 5636 5637 5639 5641 5642 5643 5644 5645 5646 5645 5644 5642 5640 5638 5636 5635 5636 5637 5637 5637 5636 5636 5635 5634 5634
5630 5630 5631 5631 5631 5631 5631 5631 5630 5628 5628 5627 5627 5629 5630 5632 5632 5633 5634 5635 5637 5638 5638 5638 5637 5635 5633 5631 5629 5629 5628 5628 5628 5628 5628 5627 5626 5624
5619 5620 5620 5620 5619 5620 5621 5621 5620 5620 5619 5620 5621 5621 5621 5622 5622 5623 5623 5624 5625 5626 5628 5629 5629 5628 5625 5624 5623 5622 5621 5620 5620 5619 5619 5618 5617 5616
5606 5606 5606 5606 5606 5608 5609 5609 5610 5610 5610 5610 5611 5611 5611 5612 5612 5613 5614 5614 5615 5616 5616 5616 5617 5618 5617 5616 5614 5614 5613 5612 5612 5611 5609 5607 5607 5607
5592 5592 5593 5593 5594 5596 5598 5598 5598 5599 5600 5600 5600 5601 5601 5602 5602 5603 5603 5604 5606 5607 5607 5607 5606 5604 5604 5604 5606 5606 5604 5604 5602 5601 5600 5598 5597 5598
5577 5578 5579 5581 5582 5584 5585 5586 5588 5589 5589 5588 5589 5590 5591 5592 5592 5592 5592 5593 5595 5596 5598 5597 5597 5596 5595 5595 5595 5597 5596 5595 5593 5591 5591 5590 5589 5589
5563 5564 5565 5567 5568 5570 5573 5574 5576 5577 5577 5577 5578 5579 5580 5581 5581 5582 5582 5583 5584 5585 5585 5586 5587 5589 5590 5589 5587 5585 5587 5586 5584 5583 5581 5579 5578 5579
5548 5549 5551 5553 5554 5556 5559 5561 5563 5564 5565 5566 5567 5568 5568 5569 5571 5572 5572 5573 5573 5575 5576 5577 5579 5580 5579 5577 5574 5574 5574 5576 5578 5576 5573 5570 5567 5567
5534 5535 5536 5538 5540 5542 5544 5546 5548 5551 5553 5554 5556 5557 5557 5557 5559 5561 5562 5563 5564 5566 5568 5568 5567 5567 5567 5567 5567 5566 5564 5564 5565 5566 5566 5567 5564 5562
5521 5521 5523 5524 5526 5528 5530 5533 5535 5538 5540 5542 5544 5546 5546 5547 5548 5549 5551 5552 5553 5554 5555 5555 5555 5556 5557 5558 5557 5556 5555 5554 5553 5553 5554 5557 5559 5560